Year,Month,Day,Hour,Minute,Value (Times are PST for temperature in C)
2015,07,26,00,00,15.90
2015,07,26,00,01,15.90
2015,07,26,00,02,15.90
2015,07,26,00,03,15.90
2015,07,26,00,04,15.90
2015,07,26,00,05,15.90
2015,07,26,00,06,15.90
2015,07,26,00,07,15.90
2015,07,26,00,08,15.80
2015,07,26,00,09,15.80
2015,07,26,00,10,15.80
2015,07,26,00,11,15.80
2015,07,26,00,12,15.80
2015,07,26,00,13,15.70
2015,07,26,00,14,15.70
2015,07,26,00,15,15.70
2015,07,26,00,16,15.80
2015,07,26,00,17,15.80
2015,07,26,00,18,15.90
2015,07,26,00,19,15.90
2015,07,26,00,20,15.90
2015,07,26,00,21,15.90
2015,07,26,00,22,15.90
2015,07,26,00,23,15.90
2015,07,26,00,24,15.90
2015,07,26,00,25,15.90
2015,07,26,00,26,15.90
2015,07,26,00,27,15.90
2015,07,26,00,28,15.90
2015,07,26,00,29,15.90
2015,07,26,00,30,15.80
2015,07,26,00,31,15.80
2015,07,26,00,32,15.80
2015,07,26,00,33,15.80
2015,07,26,00,34,15.80
2015,07,26,00,35,15.70
2015,07,26,00,36,15.70
2015,07,26,00,37,15.70
2015,07,26,00,38,15.60
2015,07,26,00,39,15.60
2015,07,26,00,40,15.60
2015,07,26,00,41,15.60
2015,07,26,00,42,15.50
2015,07,26,00,43,15.50
2015,07,26,00,44,15.40
2015,07,26,00,45,15.40
2015,07,26,00,46,15.30
2015,07,26,00,47,15.30
2015,07,26,00,48,15.30
2015,07,26,00,49,15.30
2015,07,26,00,50,15.20
2015,07,26,00,51,15.20
2015,07,26,00,52,15.20
2015,07,26,00,53,15.20
2015,07,26,00,54,15.20
2015,07,26,00,55,15.20
2015,07,26,00,56,15.10
2015,07,26,00,57,15.10
2015,07,26,00,58,15.10
2015,07,26,00,59,15.10
2015,07,26,01,00,15.00
2015,07,26,01,01,15.00
2015,07,26,01,02,15.00
2015,07,26,01,03,15.00
2015,07,26,01,04,15.00
2015,07,26,01,05,15.00
2015,07,26,01,06,15.00
2015,07,26,01,07,14.90
2015,07,26,01,08,14.90
2015,07,26,01,09,14.90
2015,07,26,01,10,14.90
2015,07,26,01,11,14.90
2015,07,26,01,12,14.80
2015,07,26,01,13,14.80
2015,07,26,01,14,14.80
2015,07,26,01,15,14.80
2015,07,26,01,16,14.80
2015,07,26,01,17,14.80
2015,07,26,01,18,14.80
2015,07,26,01,19,14.80
2015,07,26,01,20,14.70
2015,07,26,01,21,14.70
2015,07,26,01,22,14.70
2015,07,26,01,23,14.70
2015,07,26,01,24,14.60
2015,07,26,01,25,14.60
2015,07,26,01,26,14.60
2015,07,26,01,27,14.60
2015,07,26,01,28,14.60
2015,07,26,01,29,14.60
2015,07,26,01,30,14.60
2015,07,26,01,31,14.50
2015,07,26,01,32,14.50
2015,07,26,01,33,14.40
2015,07,26,01,34,14.40
2015,07,26,01,35,14.40
2015,07,26,01,36,14.30
2015,07,26,01,37,14.30
2015,07,26,01,38,14.30
2015,07,26,01,39,14.20
2015,07,26,01,40,14.20
2015,07,26,01,41,14.20
2015,07,26,01,42,14.10
2015,07,26,01,43,14.10
2015,07,26,01,44,14.10
2015,07,26,01,45,14.00
2015,07,26,01,46,13.90
2015,07,26,01,47,13.90
2015,07,26,01,48,13.90
2015,07,26,01,49,13.80
2015,07,26,01,50,13.80
2015,07,26,01,51,13.80
2015,07,26,01,52,13.80
2015,07,26,01,53,13.70
2015,07,26,01,54,13.70
2015,07,26,01,55,13.70
2015,07,26,01,56,13.70
2015,07,26,01,57,13.70
2015,07,26,01,58,13.70
2015,07,26,01,59,13.70
2015,07,26,02,00,13.70
2015,07,26,02,01,13.70
2015,07,26,02,02,13.60
2015,07,26,02,03,13.60
2015,07,26,02,04,13.60
2015,07,26,02,05,13.60
2015,07,26,02,06,13.60
2015,07,26,02,07,13.50
2015,07,26,02,08,13.50
2015,07,26,02,09,13.50
2015,07,26,02,10,13.40
2015,07,26,02,11,13.40
2015,07,26,02,12,13.40
2015,07,26,02,13,13.40
2015,07,26,02,14,13.40
2015,07,26,02,15,13.40
2015,07,26,02,16,13.30
2015,07,26,02,17,13.30
2015,07,26,02,18,13.30
2015,07,26,02,19,13.30
2015,07,26,02,20,13.20
2015,07,26,02,21,13.20
2015,07,26,02,22,13.20
2015,07,26,02,23,13.20
2015,07,26,02,24,13.20
2015,07,26,02,25,13.20
2015,07,26,02,26,13.20
2015,07,26,02,27,13.20
2015,07,26,02,28,13.20
2015,07,26,02,29,13.10
2015,07,26,02,30,13.10
2015,07,26,02,31,13.10
2015,07,26,02,32,13.10
2015,07,26,02,33,13.10
2015,07,26,02,34,13.10
2015,07,26,02,35,13.10
2015,07,26,02,36,13.10
2015,07,26,02,37,13.10
2015,07,26,02,38,13.10
2015,07,26,02,39,13.10
2015,07,26,02,40,13.10
2015,07,26,02,41,13.10
2015,07,26,02,42,13.10
2015,07,26,02,43,13.10
2015,07,26,02,44,13.10
2015,07,26,02,45,13.00
2015,07,26,02,46,13.00
2015,07,26,02,47,13.00
2015,07,26,02,48,13.00
2015,07,26,02,49,13.00
2015,07,26,02,50,13.00
2015,07,26,02,51,13.00
2015,07,26,02,52,13.00
2015,07,26,02,53,13.00
2015,07,26,02,54,13.00
2015,07,26,02,55,13.00
2015,07,26,02,56,12.90
2015,07,26,02,57,12.90
2015,07,26,02,58,12.90
2015,07,26,02,59,12.90
2015,07,26,03,00,12.90
2015,07,26,03,01,12.90
2015,07,26,03,02,12.90
2015,07,26,03,03,12.90
2015,07,26,03,04,12.90
2015,07,26,03,05,12.90
2015,07,26,03,06,12.90
2015,07,26,03,07,12.90
2015,07,26,03,08,12.80
2015,07,26,03,09,12.80
2015,07,26,03,10,12.80
2015,07,26,03,11,12.80
2015,07,26,03,12,12.90
2015,07,26,03,13,12.90
2015,07,26,03,14,12.90
2015,07,26,03,15,12.90
2015,07,26,03,16,12.90
2015,07,26,03,17,12.90
2015,07,26,03,18,12.90
2015,07,26,03,19,12.90
2015,07,26,03,20,12.90
2015,07,26,03,21,12.90
2015,07,26,03,22,12.90
2015,07,26,03,23,13.00
2015,07,26,03,24,13.00
2015,07,26,03,25,13.00
2015,07,26,03,26,13.00
2015,07,26,03,27,13.00
2015,07,26,03,28,13.00
2015,07,26,03,29,13.00
2015,07,26,03,30,13.00
2015,07,26,03,31,13.00
2015,07,26,03,32,13.00
2015,07,26,03,33,13.00
2015,07,26,03,34,13.00
2015,07,26,03,35,13.00
2015,07,26,03,36,13.00
2015,07,26,03,37,12.90
2015,07,26,03,38,12.90
2015,07,26,03,39,12.90
2015,07,26,03,40,12.90
2015,07,26,03,41,12.90
2015,07,26,03,42,12.90
2015,07,26,03,43,12.90
2015,07,26,03,44,12.90
2015,07,26,03,45,12.90
2015,07,26,03,46,12.90
2015,07,26,03,47,12.90
2015,07,26,03,48,12.90
2015,07,26,03,49,12.90
2015,07,26,03,50,12.90
2015,07,26,03,51,12.90
2015,07,26,03,52,12.90
2015,07,26,03,53,12.90
2015,07,26,03,54,12.90
2015,07,26,03,55,12.90
2015,07,26,03,56,12.90
2015,07,26,03,57,12.90
2015,07,26,03,58,12.90
2015,07,26,03,59,12.90
2015,07,26,04,00,12.90
2015,07,26,04,01,12.90
2015,07,26,04,02,12.90
2015,07,26,04,03,12.90
2015,07,26,04,04,12.90
2015,07,26,04,05,13.00
2015,07,26,04,06,13.00
2015,07,26,04,07,13.00
2015,07,26,04,08,13.00
2015,07,26,04,09,13.00
2015,07,26,04,10,13.00
2015,07,26,04,11,13.10
2015,07,26,04,12,13.10
2015,07,26,04,13,13.10
2015,07,26,04,14,13.10
2015,07,26,04,15,13.10
2015,07,26,04,16,13.20
2015,07,26,04,17,13.20
2015,07,26,04,18,13.20
2015,07,26,04,19,13.30
2015,07,26,04,20,13.30
2015,07,26,04,21,13.30
2015,07,26,04,22,13.40
2015,07,26,04,23,13.40
2015,07,26,04,24,13.40
2015,07,26,04,25,13.40
2015,07,26,04,26,13.50
2015,07,26,04,27,13.50
2015,07,26,04,28,13.50
2015,07,26,04,29,13.50
2015,07,26,04,30,13.40
2015,07,26,04,31,13.50
2015,07,26,04,32,13.50
2015,07,26,04,33,13.50
2015,07,26,04,34,13.50
2015,07,26,04,35,13.50
2015,07,26,04,36,13.50
2015,07,26,04,37,13.50
2015,07,26,04,38,13.50
2015,07,26,04,39,13.50
2015,07,26,04,40,13.50
2015,07,26,04,41,13.50
2015,07,26,04,42,13.50
2015,07,26,04,43,13.40
2015,07,26,04,44,13.40
2015,07,26,04,45,13.40
2015,07,26,04,46,13.40
2015,07,26,04,47,13.40
2015,07,26,04,48,13.40
2015,07,26,04,49,13.40
2015,07,26,04,50,13.40
2015,07,26,04,51,13.40
2015,07,26,04,52,13.40
2015,07,26,04,53,13.40
2015,07,26,04,54,13.40
2015,07,26,04,55,13.40
2015,07,26,04,56,13.40
2015,07,26,04,57,13.40
2015,07,26,04,58,13.40
2015,07,26,04,59,13.40
2015,07,26,05,00,13.40
2015,07,26,05,01,13.40
2015,07,26,05,02,13.40
2015,07,26,05,03,13.40
2015,07,26,05,04,13.40
2015,07,26,05,05,13.40
2015,07,26,05,06,13.40
2015,07,26,05,07,13.40
2015,07,26,05,08,13.40
2015,07,26,05,09,13.40
2015,07,26,05,10,13.40
2015,07,26,05,11,13.40
2015,07,26,05,12,13.40
2015,07,26,05,13,13.40
2015,07,26,05,14,13.40
2015,07,26,05,15,13.50
2015,07,26,05,16,13.50
2015,07,26,05,17,13.50
2015,07,26,05,18,13.60
2015,07,26,05,19,13.60
2015,07,26,05,20,13.60
2015,07,26,05,21,13.70
2015,07,26,05,22,13.70
2015,07,26,05,23,13.70
2015,07,26,05,24,13.70
2015,07,26,05,25,13.70
2015,07,26,05,26,13.70
2015,07,26,05,27,13.70
2015,07,26,05,28,13.70
2015,07,26,05,29,13.70
2015,07,26,05,30,13.70
2015,07,26,05,31,13.70
2015,07,26,05,32,13.70
2015,07,26,05,33,13.70
2015,07,26,05,34,13.70
2015,07,26,05,35,13.70
2015,07,26,05,36,13.70
2015,07,26,05,37,13.70
2015,07,26,05,38,13.70
2015,07,26,05,39,13.80
2015,07,26,05,40,13.80
2015,07,26,05,41,13.80
2015,07,26,05,42,13.80
2015,07,26,05,43,13.90
2015,07,26,05,44,13.90
2015,07,26,05,45,13.90
2015,07,26,05,46,13.90
2015,07,26,05,47,14.00
2015,07,26,05,48,14.00
2015,07,26,05,49,14.00
2015,07,26,05,50,14.00
2015,07,26,05,51,14.00
2015,07,26,05,52,14.00
2015,07,26,05,53,14.00
2015,07,26,05,54,14.00
2015,07,26,05,55,14.00
2015,07,26,05,56,14.00
2015,07,26,05,57,14.00
2015,07,26,05,58,14.00
2015,07,26,05,59,14.00
2015,07,26,06,00,14.00
2015,07,26,06,01,14.00
2015,07,26,06,02,14.00
2015,07,26,06,03,14.00
2015,07,26,06,04,14.00
2015,07,26,06,05,13.90
2015,07,26,06,06,13.90
2015,07,26,06,07,13.90
2015,07,26,06,08,13.90
2015,07,26,06,09,13.90
2015,07,26,06,10,13.90
2015,07,26,06,11,13.90
2015,07,26,06,12,13.90
2015,07,26,06,13,13.90
2015,07,26,06,14,13.90
2015,07,26,06,15,13.90
2015,07,26,06,16,13.90
2015,07,26,06,17,13.80
2015,07,26,06,18,13.80
2015,07,26,06,19,13.80
2015,07,26,06,20,13.80
2015,07,26,06,21,13.80
2015,07,26,06,22,13.80
2015,07,26,06,23,13.80
2015,07,26,06,24,13.90
2015,07,26,06,25,13.90
2015,07,26,06,26,13.90
2015,07,26,06,27,13.90
2015,07,26,06,28,14.00
2015,07,26,06,29,14.00
2015,07,26,06,30,14.10
2015,07,26,06,31,14.10
2015,07,26,06,32,14.20
2015,07,26,06,33,14.20
2015,07,26,06,34,14.20
2015,07,26,06,35,14.30
2015,07,26,06,36,14.30
2015,07,26,06,37,14.30
2015,07,26,06,38,14.40
2015,07,26,06,39,14.40
2015,07,26,06,40,14.40
2015,07,26,06,41,14.50
2015,07,26,06,42,14.50
2015,07,26,06,43,14.50
2015,07,26,06,44,14.60
2015,07,26,06,45,14.60
2015,07,26,06,46,14.60
2015,07,26,06,47,14.70
2015,07,26,06,48,14.70
2015,07,26,06,49,14.70
2015,07,26,06,50,14.70
2015,07,26,06,51,14.70
2015,07,26,06,52,14.70
2015,07,26,06,53,14.80
2015,07,26,06,54,14.80
2015,07,26,06,55,14.80
2015,07,26,06,56,14.80
2015,07,26,06,57,14.80
2015,07,26,06,58,14.80
2015,07,26,06,59,14.80
2015,07,26,07,00,14.80
2015,07,26,07,01,14.80
2015,07,26,07,02,14.80
2015,07,26,07,03,14.80
2015,07,26,07,04,14.80
2015,07,26,07,05,14.80
2015,07,26,07,06,14.90
2015,07,26,07,07,14.90
2015,07,26,07,08,14.90
2015,07,26,07,09,14.90
2015,07,26,07,10,14.90
2015,07,26,07,11,14.90
2015,07,26,07,12,14.90
2015,07,26,07,13,14.90
2015,07,26,07,14,14.90
2015,07,26,07,15,14.90
2015,07,26,07,16,14.90
2015,07,26,07,17,14.90
2015,07,26,07,18,14.90
2015,07,26,07,19,14.90
2015,07,26,07,20,14.90
2015,07,26,07,21,14.90
2015,07,26,07,22,14.90
2015,07,26,07,23,14.90
2015,07,26,07,24,14.90
2015,07,26,07,25,14.90
2015,07,26,07,26,14.90
2015,07,26,07,27,14.90
2015,07,26,07,28,14.90
2015,07,26,07,29,14.90
2015,07,26,07,30,14.90
2015,07,26,07,31,14.90
2015,07,26,07,32,14.90
2015,07,26,07,33,14.90
2015,07,26,07,34,14.90
2015,07,26,07,35,14.90
2015,07,26,07,36,14.90
2015,07,26,07,37,14.90
2015,07,26,07,38,14.90
2015,07,26,07,39,14.90
2015,07,26,07,40,14.90
2015,07,26,07,41,14.90
2015,07,26,07,42,14.90
2015,07,26,07,43,14.90
2015,07,26,07,44,14.90
2015,07,26,07,45,14.90
2015,07,26,07,46,14.90
2015,07,26,07,47,14.90
2015,07,26,07,48,14.90
2015,07,26,07,49,14.90
2015,07,26,07,50,14.90
2015,07,26,07,51,14.90
2015,07,26,07,52,15.00
2015,07,26,07,53,15.00
2015,07,26,07,54,15.00
2015,07,26,07,55,15.00
2015,07,26,07,56,15.00
2015,07,26,07,57,15.00
2015,07,26,07,58,15.00
2015,07,26,07,59,15.00
2015,07,26,08,00,15.00
2015,07,26,08,01,15.00
2015,07,26,08,02,15.00
2015,07,26,08,03,14.90
2015,07,26,08,04,14.90
2015,07,26,08,05,14.90
2015,07,26,08,06,14.90
2015,07,26,08,07,14.90
2015,07,26,08,08,14.90
2015,07,26,08,09,14.90
2015,07,26,08,10,14.90
2015,07,26,08,11,14.90
2015,07,26,08,12,14.90
2015,07,26,08,13,14.90
2015,07,26,08,14,14.90
2015,07,26,08,15,14.90
2015,07,26,08,16,14.90
2015,07,26,08,17,14.90
2015,07,26,08,18,14.90
2015,07,26,08,19,14.90
2015,07,26,08,20,14.90
2015,07,26,08,21,14.90
2015,07,26,08,22,14.90
2015,07,26,08,23,14.90
2015,07,26,08,24,14.90
2015,07,26,08,25,14.90
2015,07,26,08,26,14.90
2015,07,26,08,27,14.90
2015,07,26,08,28,14.90
2015,07,26,08,29,14.90
2015,07,26,08,30,14.90
2015,07,26,08,31,14.90
2015,07,26,08,32,14.90
2015,07,26,08,33,14.90
2015,07,26,08,34,14.90
2015,07,26,08,35,15.00
2015,07,26,08,36,15.00
2015,07,26,08,37,15.00
2015,07,26,08,38,15.10
2015,07,26,08,39,15.10
2015,07,26,08,40,15.10
2015,07,26,08,41,15.10
2015,07,26,08,42,15.10
2015,07,26,08,43,15.10
2015,07,26,08,44,15.10
2015,07,26,08,45,15.10
2015,07,26,08,46,15.10
2015,07,26,08,47,15.10
2015,07,26,08,48,15.10
2015,07,26,08,49,15.10
2015,07,26,08,50,15.10
2015,07,26,08,51,15.10
2015,07,26,08,52,15.10
2015,07,26,08,53,15.00
2015,07,26,08,54,15.00
2015,07,26,08,55,15.00
2015,07,26,08,56,14.90
2015,07,26,08,57,14.90
2015,07,26,08,58,14.90
2015,07,26,08,59,14.90
2015,07,26,09,00,14.90
2015,07,26,09,01,14.90
2015,07,26,09,02,14.90
2015,07,26,09,03,14.90
2015,07,26,09,04,14.90
2015,07,26,09,05,14.90
2015,07,26,09,06,14.90
2015,07,26,09,07,14.90
2015,07,26,09,08,15.00
2015,07,26,09,09,15.00
2015,07,26,09,10,15.00
2015,07,26,09,11,15.10
2015,07,26,09,12,15.10
2015,07,26,09,13,15.10
2015,07,26,09,14,15.10
2015,07,26,09,15,15.10
2015,07,26,09,16,15.10
2015,07,26,09,17,15.10
2015,07,26,09,18,15.20
2015,07,26,09,19,15.20
2015,07,26,09,20,15.20
2015,07,26,09,21,15.20
2015,07,26,09,22,15.20
2015,07,26,09,23,15.20
2015,07,26,09,24,15.20
2015,07,26,09,25,15.20
2015,07,26,09,26,15.20
2015,07,26,09,27,15.20
2015,07,26,09,28,15.30
2015,07,26,09,29,15.30
2015,07,26,09,30,15.30
2015,07,26,09,31,15.30
2015,07,26,09,32,15.30
2015,07,26,09,33,15.30
2015,07,26,09,34,15.30
2015,07,26,09,35,15.30
2015,07,26,09,36,15.20
2015,07,26,09,37,15.20
2015,07,26,09,38,15.20
2015,07,26,09,39,15.20
2015,07,26,09,40,15.20
2015,07,26,09,41,15.20
2015,07,26,09,42,15.30
2015,07,26,09,43,15.30
2015,07,26,09,44,15.30
2015,07,26,09,45,15.20
2015,07,26,09,46,15.20
2015,07,26,09,47,15.20
2015,07,26,09,48,15.20
2015,07,26,09,49,15.20
2015,07,26,09,50,15.10
2015,07,26,09,51,15.10
2015,07,26,09,52,15.10
2015,07,26,09,53,15.00
2015,07,26,09,54,15.00
2015,07,26,09,55,14.90
2015,07,26,09,56,14.90
2015,07,26,09,57,14.90
2015,07,26,09,58,14.80
2015,07,26,09,59,14.80
2015,07,26,10,00,14.80
2015,07,26,10,01,14.80
2015,07,26,10,02,14.70
2015,07,26,10,03,14.70
2015,07,26,10,04,14.70
2015,07,26,10,05,14.70
2015,07,26,10,06,14.70
2015,07,26,10,07,14.70
2015,07,26,10,08,14.70
2015,07,26,10,09,14.70
2015,07,26,10,10,14.70
2015,07,26,10,11,14.80
2015,07,26,10,12,14.80
2015,07,26,10,13,14.80
2015,07,26,10,14,14.80
2015,07,26,10,15,14.80
2015,07,26,10,16,14.90
2015,07,26,10,17,14.90
2015,07,26,10,18,15.00
2015,07,26,10,19,15.00
2015,07,26,10,20,15.10
2015,07,26,10,21,15.10
2015,07,26,10,22,15.10
2015,07,26,10,23,15.20
2015,07,26,10,24,15.20
2015,07,26,10,25,15.20
2015,07,26,10,26,15.20
2015,07,26,10,27,15.20
2015,07,26,10,28,15.20
2015,07,26,10,29,15.20
2015,07,26,10,30,15.20
2015,07,26,10,31,15.20
2015,07,26,10,32,15.20
2015,07,26,10,33,15.30
2015,07,26,10,34,15.30
2015,07,26,10,35,15.30
2015,07,26,10,36,15.30
2015,07,26,10,37,15.40
2015,07,26,10,38,15.40
2015,07,26,10,39,15.40
2015,07,26,10,40,15.40
2015,07,26,10,41,15.40
2015,07,26,10,42,15.50
2015,07,26,10,43,15.50
2015,07,26,10,44,15.60
2015,07,26,10,45,15.60
2015,07,26,10,46,15.60
2015,07,26,10,47,15.60
2015,07,26,10,48,15.60
2015,07,26,10,49,15.60
2015,07,26,10,50,15.60
2015,07,26,10,51,15.60
2015,07,26,10,52,15.60
2015,07,26,10,53,15.60
2015,07,26,10,54,15.60
2015,07,26,10,55,15.70
2015,07,26,10,56,15.70
2015,07,26,10,57,15.70
2015,07,26,10,58,15.70
2015,07,26,10,59,15.70
2015,07,26,11,00,15.80
2015,07,26,11,01,15.80
2015,07,26,11,02,15.80
2015,07,26,11,03,15.90
2015,07,26,11,04,15.90
2015,07,26,11,05,16.00
2015,07,26,11,06,16.00
2015,07,26,11,07,16.00
2015,07,26,11,08,16.10
2015,07,26,11,09,16.10
2015,07,26,11,10,16.10
2015,07,26,11,11,16.10
2015,07,26,11,12,16.20
2015,07,26,11,13,16.20
2015,07,26,11,14,16.20
2015,07,26,11,15,16.20
2015,07,26,11,16,16.20
2015,07,26,11,17,16.20
2015,07,26,11,18,16.20
2015,07,26,11,19,16.20
2015,07,26,11,20,16.20
2015,07,26,11,21,16.20
2015,07,26,11,22,16.30
2015,07,26,11,23,16.30
2015,07,26,11,24,16.30
2015,07,26,11,25,16.30
2015,07,26,11,26,16.40
2015,07,26,11,27,16.40
2015,07,26,11,28,16.40
2015,07,26,11,29,16.30
2015,07,26,11,30,16.30
2015,07,26,11,31,16.30
2015,07,26,11,32,16.30
2015,07,26,11,33,16.30
2015,07,26,11,34,16.40
2015,07,26,11,35,16.40
2015,07,26,11,36,16.40
2015,07,26,11,37,16.40
2015,07,26,11,38,16.40
2015,07,26,11,39,16.40
2015,07,26,11,40,16.40
2015,07,26,11,41,16.40
2015,07,26,11,42,16.30
2015,07,26,11,43,16.30
2015,07,26,11,44,16.30
2015,07,26,11,45,16.30
2015,07,26,11,46,16.30
2015,07,26,11,47,16.20
2015,07,26,11,48,16.20
2015,07,26,11,49,16.20
2015,07,26,11,50,16.20
2015,07,26,11,51,16.20
2015,07,26,11,52,16.30
2015,07,26,11,53,16.30
2015,07,26,11,54,16.30
2015,07,26,11,55,16.30
2015,07,26,11,56,16.30
2015,07,26,11,57,16.30
2015,07,26,11,58,16.20
2015,07,26,11,59,16.20
2015,07,26,12,00,16.20
2015,07,26,12,01,16.20
2015,07,26,12,02,16.10
2015,07,26,12,03,16.10
2015,07,26,12,04,16.10
2015,07,26,12,05,16.10
2015,07,26,12,06,16.20
2015,07,26,12,07,16.10
2015,07,26,12,08,16.10
2015,07,26,12,09,16.10
2015,07,26,12,10,16.00
2015,07,26,12,11,16.00
2015,07,26,12,12,16.00
2015,07,26,12,13,16.00
2015,07,26,12,14,16.00
2015,07,26,12,15,15.90
2015,07,26,12,16,15.90
2015,07,26,12,17,15.90
2015,07,26,12,18,15.90
2015,07,26,12,19,15.80
2015,07,26,12,20,15.80
2015,07,26,12,21,15.90
2015,07,26,12,22,15.90
2015,07,26,12,23,15.90
2015,07,26,12,24,16.00
2015,07,26,12,25,16.00
2015,07,26,12,26,16.00
2015,07,26,12,27,16.10
2015,07,26,12,28,16.10
2015,07,26,12,29,16.10
2015,07,26,12,30,16.10
2015,07,26,12,31,16.10
2015,07,26,12,32,16.10
2015,07,26,12,33,16.10
2015,07,26,12,34,16.10
2015,07,26,12,35,16.10
2015,07,26,12,36,16.10
2015,07,26,12,37,16.10
2015,07,26,12,38,16.10
2015,07,26,12,39,16.20
2015,07,26,12,40,16.20
2015,07,26,12,41,16.20
2015,07,26,12,42,16.20
2015,07,26,12,43,16.20
2015,07,26,12,44,16.10
2015,07,26,12,45,16.10
2015,07,26,12,46,16.10
2015,07,26,12,47,16.10
2015,07,26,12,48,16.10
2015,07,26,12,49,16.10
2015,07,26,12,50,16.10
2015,07,26,12,51,16.10
2015,07,26,12,52,16.10
2015,07,26,12,53,16.10
2015,07,26,12,54,16.10
2015,07,26,12,55,16.10
2015,07,26,12,56,16.10
2015,07,26,12,57,16.10
2015,07,26,12,58,16.10
2015,07,26,12,59,16.10
2015,07,26,13,00,16.10
2015,07,26,13,01,16.20
2015,07,26,13,02,16.20
2015,07,26,13,03,16.20
2015,07,26,13,04,16.30
2015,07,26,13,05,16.30
2015,07,26,13,06,16.40
2015,07,26,13,07,16.40
2015,07,26,13,08,16.50
2015,07,26,13,09,16.50
2015,07,26,13,10,16.60
2015,07,26,13,11,16.70
2015,07,26,13,12,16.70
2015,07,26,13,13,16.80
2015,07,26,13,14,16.90
2015,07,26,13,15,16.90
2015,07,26,13,16,17.00
2015,07,26,13,17,17.00
2015,07,26,13,18,16.90
2015,07,26,13,19,16.90
2015,07,26,13,20,16.90
2015,07,26,13,21,16.80
2015,07,26,13,22,16.80
2015,07,26,13,23,16.80
2015,07,26,13,24,16.80
2015,07,26,13,25,16.90
2015,07,26,13,26,17.00
2015,07,26,13,27,17.00
2015,07,26,13,28,17.10
2015,07,26,13,29,17.10
2015,07,26,13,30,17.20
2015,07,26,13,31,17.10
2015,07,26,13,32,17.10
2015,07,26,13,33,17.10
2015,07,26,13,34,17.10
2015,07,26,13,35,17.00
2015,07,26,13,36,17.00
2015,07,26,13,37,16.90
2015,07,26,13,38,16.90
2015,07,26,13,39,16.90
2015,07,26,13,40,16.90
2015,07,26,13,41,16.90
2015,07,26,13,42,16.80
2015,07,26,13,43,16.80
2015,07,26,13,44,16.80
2015,07,26,13,45,16.80
2015,07,26,13,46,16.80
2015,07,26,13,47,16.90
2015,07,26,13,48,16.90
2015,07,26,13,49,16.90
2015,07,26,13,50,16.90
2015,07,26,13,51,16.90
2015,07,26,13,52,16.90
2015,07,26,13,53,16.90
2015,07,26,13,54,17.00
2015,07,26,13,55,17.10
2015,07,26,13,56,17.10
2015,07,26,13,57,17.20
2015,07,26,13,58,17.30
2015,07,26,13,59,17.40
2015,07,26,14,00,17.50
2015,07,26,14,01,17.60
2015,07,26,14,02,17.70
2015,07,26,14,03,17.80
2015,07,26,14,04,17.90
2015,07,26,14,05,17.90
2015,07,26,14,06,18.00
2015,07,26,14,07,18.00
2015,07,26,14,08,18.10
2015,07,26,14,09,18.10
2015,07,26,14,10,18.20
2015,07,26,14,11,18.20
2015,07,26,14,12,18.20
2015,07,26,14,13,18.20
2015,07,26,14,14,18.20
2015,07,26,14,15,18.20
2015,07,26,14,16,18.20
2015,07,26,14,17,18.30
2015,07,26,14,18,18.40
2015,07,26,14,19,18.40
2015,07,26,14,20,18.40
2015,07,26,14,21,18.30
2015,07,26,14,22,18.30
2015,07,26,14,23,18.20
2015,07,26,14,24,18.20
2015,07,26,14,25,18.20
2015,07,26,14,26,18.10
2015,07,26,14,27,18.10
2015,07,26,14,28,18.10
2015,07,26,14,29,18.10
2015,07,26,14,30,18.10
2015,07,26,14,31,18.10
2015,07,26,14,32,18.20
2015,07,26,14,33,18.30
2015,07,26,14,34,18.30
2015,07,26,14,35,18.40
2015,07,26,14,36,18.50
2015,07,26,14,37,18.70
2015,07,26,14,38,18.80
2015,07,26,14,39,18.90
2015,07,26,14,40,19.00
2015,07,26,14,41,19.10
2015,07,26,14,42,19.20
2015,07,26,14,43,19.40
2015,07,26,14,44,19.40
2015,07,26,14,45,19.50
2015,07,26,14,46,19.50
2015,07,26,14,47,19.40
2015,07,26,14,48,19.40
2015,07,26,14,49,19.40
2015,07,26,14,50,19.40
2015,07,26,14,51,19.50
2015,07,26,14,52,19.60
2015,07,26,14,53,19.60
2015,07,26,14,54,19.50
2015,07,26,14,55,19.50
2015,07,26,14,56,19.40
2015,07,26,14,57,19.40
2015,07,26,14,58,19.50
2015,07,26,14,59,19.50
2015,07,26,15,00,19.60
2015,07,26,15,01,19.70
2015,07,26,15,02,19.80
2015,07,26,15,03,19.70
2015,07,26,15,04,19.70
2015,07,26,15,05,19.70
2015,07,26,15,06,19.70
2015,07,26,15,07,19.70
2015,07,26,15,08,19.60
2015,07,26,15,09,19.60
2015,07,26,15,10,19.60
2015,07,26,15,11,19.60
2015,07,26,15,12,19.70
2015,07,26,15,13,19.80
2015,07,26,15,14,19.80
2015,07,26,15,15,19.80
2015,07,26,15,16,19.90
2015,07,26,15,17,20.00
2015,07,26,15,18,20.10
2015,07,26,15,19,20.10
2015,07,26,15,20,20.20
2015,07,26,15,21,20.20
2015,07,26,15,22,20.20
2015,07,26,15,23,20.20
2015,07,26,15,24,20.20
2015,07,26,15,25,20.20
2015,07,26,15,26,20.20
2015,07,26,15,27,20.20
2015,07,26,15,28,20.30
2015,07,26,15,29,20.20
2015,07,26,15,30,20.10
2015,07,26,15,31,19.90
2015,07,26,15,32,19.70
2015,07,26,15,33,19.60
2015,07,26,15,34,19.60
2015,07,26,15,35,19.60
2015,07,26,15,36,19.70
2015,07,26,15,37,19.70
2015,07,26,15,38,19.80
2015,07,26,15,39,19.90
2015,07,26,15,40,19.90
2015,07,26,15,41,20.00
2015,07,26,15,42,20.10
2015,07,26,15,43,20.10
2015,07,26,15,44,20.20
2015,07,26,15,45,20.30
2015,07,26,15,46,20.30
2015,07,26,15,47,20.30
2015,07,26,15,48,20.40
2015,07,26,15,49,20.40
2015,07,26,15,50,20.40
2015,07,26,15,51,20.50
2015,07,26,15,52,20.50
2015,07,26,15,53,20.50
2015,07,26,15,54,20.60
2015,07,26,15,55,20.60
2015,07,26,15,56,20.70
2015,07,26,15,57,20.70
2015,07,26,15,58,20.80
2015,07,26,15,59,20.80
2015,07,26,16,00,20.80
2015,07,26,16,01,20.80
2015,07,26,16,02,20.80
2015,07,26,16,03,20.80
2015,07,26,16,04,20.80
2015,07,26,16,05,20.80
2015,07,26,16,06,20.80
2015,07,26,16,07,20.80
2015,07,26,16,08,20.90
2015,07,26,16,09,20.90
2015,07,26,16,10,21.00
2015,07,26,16,11,21.00
2015,07,26,16,12,21.10
2015,07,26,16,13,21.10
2015,07,26,16,14,21.10
2015,07,26,16,15,21.10
2015,07,26,16,16,21.10
2015,07,26,16,17,21.10
2015,07,26,16,18,21.10
2015,07,26,16,19,21.10
2015,07,26,16,20,21.20
2015,07,26,16,21,21.20
2015,07,26,16,22,21.20
2015,07,26,16,23,21.20
2015,07,26,16,24,21.20
2015,07,26,16,25,21.10
2015,07,26,16,26,21.10
2015,07,26,16,27,21.10
2015,07,26,16,28,21.10
2015,07,26,16,29,21.00
2015,07,26,16,30,21.00
2015,07,26,16,31,21.00
2015,07,26,16,32,21.00
2015,07,26,16,33,21.00
2015,07,26,16,34,21.00
2015,07,26,16,35,21.00
2015,07,26,16,36,20.90
2015,07,26,16,37,21.00
2015,07,26,16,38,21.00
2015,07,26,16,39,21.00
2015,07,26,16,40,21.10
2015,07,26,16,41,21.10
2015,07,26,16,42,21.10
2015,07,26,16,43,21.10
2015,07,26,16,44,21.10
2015,07,26,16,45,21.10
2015,07,26,16,46,21.10
2015,07,26,16,47,21.20
2015,07,26,16,48,21.20
2015,07,26,16,49,21.20
2015,07,26,16,50,21.20
2015,07,26,16,51,21.20
2015,07,26,16,52,21.20
2015,07,26,16,53,21.30
2015,07,26,16,54,21.30
2015,07,26,16,55,21.30
2015,07,26,16,56,21.30
2015,07,26,16,57,21.20
2015,07,26,16,58,21.20
2015,07,26,16,59,21.20
2015,07,26,17,00,21.20
2015,07,26,17,01,21.20
2015,07,26,17,02,21.20
2015,07,26,17,03,21.30
2015,07,26,17,04,21.30
2015,07,26,17,05,21.30
2015,07,26,17,06,21.30
2015,07,26,17,07,21.20
2015,07,26,17,08,21.20
2015,07,26,17,09,21.20
2015,07,26,17,10,21.10
2015,07,26,17,11,21.00
2015,07,26,17,12,21.00
2015,07,26,17,13,20.90
2015,07,26,17,14,20.90
2015,07,26,17,15,20.80
2015,07,26,17,16,20.80
2015,07,26,17,17,20.80
2015,07,26,17,18,20.80
2015,07,26,17,19,20.70